User: anonymous   Login
Location: Adrasan
(36.3319°N, 30.4314°E)
Time: 12:35:47
(UTC+00:00)
Language:

Cosmos 676 Rocket - Orbit

View from above orbital plane
View from above orbital plane
View from above satellite
View from above satellite

Ground track
Ground track

The orbit data is extracted from the following two-line orbital elements,

1 07434U 74071B   24103.93345726  .00000331  00000-0  11938-3 0  9998
2 07434  74.0457 316.6361 0020845 329.3212  30.6721 14.37382707594272
Epoch (UTC): 12 April 2024 22:24:10
Eccentricity: 0.0020845
inclination: 74.0457°
perigee height: 752 km
apogee height: 782 km
right ascension of ascending node: 316.6361°
argument of perigee: 329.3212°
revolutions per day: 14.37382707
mean anomaly at epoch: 30.6721°
orbit number at epoch: 59427

The dashed part of the orbit path shows where the satellite is in the earth's shadow,  

DLR